This is the latest recevied weather packets stored in our database for station/object EMGATE. If no packets are shown the sender has not sent any weather packets the latest 10 day(s).
| Time | Temp. | Humidity | Pressure | Rain* | Wind** | Luminosity | Snow |
|---|---|---|---|---|---|---|---|
| 1777282744 | 5° C | 71% | 1025 hPa | 0 mm | - | - | - |
| 1777281844 | 5.56° C | 71% | 1024.9 hPa | 0 mm | - | - | - |
| 1777280944 | 5.56° C | 70% | 1024.7 hPa | 0 mm | - | - | - |
| 1777280044 | 6.11° C | 70% | 1024.5 hPa | 0 mm | - | - | - |
| 1777279144 | 6.11° C | 70% | 1024.3 hPa | 0 mm | - | - | - |
| 1777278244 | 6.11° C | 70% | 1024.1 hPa | 0 mm | - | - | - |
| 1777277344 | 6.11° C | 70% | 1024 hPa | 0 mm | - | - | - |
| 1777276444 | 5.56° C | 71% | 1023.8 hPa | 0 mm | - | - | - |
| 1777275544 | 5.56° C | 71% | 1023.7 hPa | 0 mm | - | - | - |
| 1777274644 | 5.56° C | 71% | 1023.4 hPa | 0 mm | - | - | - |
| 1777273744 | 5.56° C | 71% | 1023.3 hPa | 0 mm | - | - | - |
| 1777272844 | 5.56° C | 71% | 1023.1 hPa | 0 mm | - | - | - |
| 1777271944 | 5° C | 73% | 1023 hPa | 0 mm | - | - | - |
| 1777271044 | 5° C | 72% | 1023.1 hPa | 0 mm | - | - | - |
| 1777270144 | 5° C | 72% | 1023.1 hPa | 0 mm | - | - | - |
| 1777269244 | 5.56° C | 71% | 1023.1 hPa | 0 mm | - | - | - |
| 1777268344 | 6.11° C | 71% | 1023.2 hPa | 0 mm | - | - | - |
| 1777267444 | 6.11° C | 70% | 1023.2 hPa | 0 mm | - | - | - |
| 1777266544 | 6.67° C | 69% | 1023.1 hPa | 0 mm | - | - | - |
| 1777265644 | 7.22° C | 69% | 1023.2 hPa | 0 mm | - | - | - |
| 1777264744 | 6.67° C | 70% | 1023.1 hPa | 0 mm | - | - | - |
| 1777263958 | 6.67° C | 71% | 1022.9 hPa | 0 mm | - | - | - |
| 1777263844 | 6.67° C | 71% | 1022.9 hPa | 0 mm | - | - | - |
| 1777262944 | 6.67° C | 71% | 1022.9 hPa | 0 mm | - | - | - |
| 1777262044 | 6.67° C | 71% | 1022.8 hPa | 0 mm | - | - | - |
* Rain latest hour (hover to see other rain measurements)
** Current wind speed in m/s (hover to see current wind gust speed)